AirNav   Pilot Hours Calculator
 
 936 users online  

KANP Lee Airport
Annapolis, Maryland, USA

GOING TO ANNAPOLIS?


FAA INFORMATION EFFECTIVE 07 NOVEMBER 2019

Location

FAA Identifier: ANP
Lat/Long: 38-56-34.3600N 076-34-06.2370W
38-56.572667N 076-34.103950W
38.9428778,-76.5683992
(estimated)
Elevation: 34.2 ft. / 10 m (estimated)
Variation: 10W (1985)
From city: 5 miles SW of ANNAPOLIS, MD
Time zone: UTC -5 (UTC -4 during Daylight Saving Time)
Zip code: 21037

Airport Operations

Airport use: Open to the public
Activation date: 06/1942
Control tower: no
ARTCC: WASHINGTON CENTER
FSS: LEESBURG FLIGHT SERVICE STATION
NOTAMs facility: DCA (NOTAM-D service available)
Attendance: 0700-1700
CONTACT AIRPORT MANAGER 410-956-1280 FOR APPROVAL OF ANY FLIGHT OPERATIONS BETWEEN 2200 - 0700 LOCAL. ARPT UNATNDD NEW YEARS; MEMORIAL DAY; JULY 4; LABOR DAY; THANKSGIVING & CHRISTMAS.
Wind indicator: lighted
Segmented circle: no
Lights: ACTVT LIRL RWY 12/30 - CTAF. LIGHTING INOP BTW 2200-0700.
Beacon: white-green (lighted land airport)
DUSK-2200.
Landing fee: yes

Airport Communications

CTAF: 122.9
POTOMAC APPROACH: 119.7
POTOMAC DEPARTURE: 119.7
WX AWOS-3 at W29 (11 nm E): 120.575 (410-643-8795)
WX AWOS-3 at FME (12 nm NW): 123.925
WX ASOS at BWI (15 nm N): PHONE 410-691-1278
WX AWOS-3 at CGS (17 nm W): 121.225 (301-864-5497)

Nearby radio navigation aids

VOR radial/distance  VOR name  Freq  Var
BALr173/14.4BALTIMORE VORTAC115.1011W
ADWr070/16.1ANDREWS VORTAC113.1010W
OTTr040/16.4NOTTINGHAM VORTAC113.7010W
DCAr086/22.4WASHINGTON VOR/DME111.0009W
EMIr158/38.2WESTMINSTER VORTAC117.9008W

 
NDB name  Hdg/Dist  Freq  Var  ID
ELLICOTT166/22.837111WFND ..-. -. -..
OXONN075/23.933211WDCA -.. -.-. .-
GEORGETOWN097/26.032309WGTN --. - -.
DAVEE065/30.422309WDAA -.. .- .-

Airport Services

Fuel available: 100LL
Parking: tiedowns
Airframe service: MAJOR
Powerplant service: MAJOR

Runway Information

Runway 12/30

Dimensions: 2500 x 48 ft. / 762 x 15 m
Surface: asphalt, in fair condition
MINOR PAVEMENT CRACKS FULL LENGTH.
Runway edge lights: low intensity
RUNWAY 12  RUNWAY 30
Latitude: 38-56.634583N38-56.510733N
Longitude: 076-34.355417W076-33.852483W
Elevation: 30.6 ft.31.3 ft.
Traffic pattern: leftleft
Runway heading: 118 magnetic, 108 true298 magnetic, 288 true
Displaced threshold: 476 ft.321 ft.
Markings: basic, in good conditionnonprecision, in good condition
Visual slope indicator: 2-light PAPI on left (5.75 degrees glide path)
VGSI APCHS TO BE FLOWN. RY 12 VGSI RELIABLE ON CENTERLINE ONLY.
2-light PAPI on right (4.25 degrees glide path)
Touchdown point: yes, no lightsyes, no lights
Obstructions: 54 ft. trees, 275 ft. from runway, 117 ft. right of centerline, 1:1 slope to clear
6 FT FENCE ACROSS APCH END MARKED. 10 FT ROAD 156 FT FM THLD.
41 ft. pole, 548 ft. from runway, 157 ft. right of centerline, 8:1 slope to clear
+6 FT FENCE ACROSS APCH END MKD. +15 FT PUBLIC ROAD AT THLD, R OF CNTRLN.

Airport Ownership and Management from official FAA records

Ownership: Privately-owned
Owner: LEE AIRPORT AUTHORITY LLC
P.O. BOX 236
QUEENSTOWN, MD 21658
Phone 410-956-1280
CORPORATION ESTABLISHED BY MARY C. LEE
Manager: LEE RUNWAY MANAGER LLC
P.O. BOX 236
QUEENSTOWN, MD 21658
Phone 410-956-1280

Airport Operational Statistics

Aircraft based on the field: 72
Single engine airplanes: 70
Multi engine airplanes: 2
    
Aircraft operations: avg 32/day *
84% local general aviation
13% transient general aviation
3% military
* for 12-month period ending 01 April 2019

Additional Remarks

NO LANDING ON GRASS. LDG FEE AFTER ONE HOUR OR OVERNIGHT.
TOUCH & GO OPNS PROHIBITED.
NO TAKE-OFFS AFTER 2200 DAILY.
NO GRASS CROSSOVER FM RY 12/30 TO TWY ROLLOUT TO THE END OF RY.
HEAVY BIRD AND WILDLIFE ACTIVITY ON AND INVOF AIRPORT.
ARPT CLSD 2200-0700 LCL, CTC ARPT MANAGER FOR DETAILS.
FOR CD CTC POTOMAC APCH AT 866-429-5882.

Instrument Procedures

NOTE: All procedures below are presented as PDF files. If you need a reader for these files, you should download the free Adobe Reader.

NOT FOR NAVIGATION. Please procure official charts for flight.
FAA instrument procedures published for use from 07 November 2019 at 0901Z to 05 December 2019 at 0900Z.

 
IAPs - Instrument Approach Procedures
RNAV (GPS)-A   download (191KB)
NOTE: Special Alternate Minimums apply   download (22KB)
NOTE: Special Take-Off Minimums/Departure Procedures apply   download (140KB)

Other nearby airports with instrument procedures:

W00 - Freeway Airport (10 nm W)
W29 - Bay Bridge Airport (11 nm E)
KFME - Tipton Airport (12 nm NW)
KBWI - Baltimore/Washington International Thurgood Marshall Airport (15 nm N)
KADW - Joint Base Andrews (16 nm SW)
KCGS - College Park Airport (17 nm W)
 
Loc | Ops | Rwys | IFR | FBO | Links
Com | Nav | Svcs | Stats | Notes
Area around KANP (Lee Airport)
 
Road maps at: MapQuest Bing Google
 
Aerial photo
WARNING: Photo may not be current or correct
Aerial photo of KANP (Lee Airport)
Photo taken 19-Oct-2016
looking northeast.

Do you have a better or more recent aerial photo of Lee Airport that you would like to share? If so, please send us your photo.

 
Sectional chart

 
Airport distance calculator
Flying to Lee Airport? Find the distance to fly.

From to KANP

Sunrise and sunset
Times for 12-Nov-2019
 Local
(UTC-5)
 Zulu
(UTC)
Morning civil twilight06:1811:18
Sunrise06:4711:47
Sunset16:5421:54
Evening civil twilight17:2322:23

Current date and time
Zulu (UTC)  13-Nov-2019 02:23:17
Local (UTC-5)  12-Nov-2019 21:23:17
 
METAR
KNAK 
5nm NE 
130154Z AUTO 31009G18KT 10SM CLR 02/M05 A3020 RMK AO2 SLP227 T00171050 $
KW29 
11nm E 
130200Z AUTO 34013G24KT 10SM SCT039 OVC047 02/M07 A3019 RMK AO2
KFME 
13nm NW 
130200Z AUTO 31005KT 10SM CLR M01/M06 A3024 RMK AO1
KBWI 
14nm N 
130154Z 33006KT 10SM FEW060 00/M07 A3020 RMK AO2 SLP227 T00001072
KADW 
16nm SW 
130056Z AUTO 31018G24KT 10SM CLR 01/M08 A3016 RMK AO2 SLP222 T00061079 $
KCGS 
17nm W 
130203Z AUTO 32008G15KT 10SM CLR 00/M10 A3022 RMK AO1 T10021100
TAF
KBWI 
14nm N 
122038Z 1221/1324 32010G20KT P6SM SCT050 BKN150 FM130300 34009KT P6SM SKC FM131800 32006KT P6SM BKN250
KADW 
16nm SW 
121835Z 1218/1323 34015G25KT 9999 FEW015 BKN060 BKN100 QNH2998INS BECMG 1303/1304 34010G18KT 9999 SCT060 QNH3018INS BECMG 1309/1310 34010KT 9999 SKC QNH3025INS TX04/1218Z TNM04/1312Z
NOTAMs
Click for the latest NOTAMs
NOTAMs are issued by the DoD/FAA and will open in a separate window not controlled by AirNav.

 

 
 

FBO, Fuel Providers, and Aircraft Ground Support

  
 Business Name 
 
 Contact 
 
 Services / Description 
 
Fuel Prices
 
Comments
  
Lee Runway Manager, LLC 410-956-1280
410-956-4129
[email]
Airport management, Aviation fuel, Aircraft parking (ramp or tiedown), Hangar leasing / sales, Pilot school (FAR Part 141), Flight training, ...

More info about Lee Runway Manager, LLC
Phillips 66
100LL
FS $5.50 
 Updated 31-Oct-2019
 
   2 read write
FS=Full service
Update Fuel Prices
 

Where to Eat: Catering, Restaurants, Food shops

  
 Business Name 
 
 Contact 
 
 Services / Description 
 
Distance
 
Comments
  
Ledo Pizza 410-956-6700
no information available

If you are affiliated with Ledo Pizza and would like to show here your services, contact info, web link, logo, and more, click here
0.1 miles  
   1 read write
Hayman's Crab House 410-956-2023
no information available

If you are affiliated with Hayman's Crab House and would like to show here your services, contact info, web link, logo, and more, click here
0.2 miles  
   write
 

Would you like to see your business listed on this page?

 If your business provides an interesting product or service to pilots, flight crews, aircraft, or users of the Lee Airport, you should consider listing it here.  To start the listing process, click on the button below
 
Add a business
 

Other Pages about Lee Airport

www.leeairport.org
www.presgroup.com/...
 
Update a link
 
Copyright © AirNav, LLC. All rights reserved. Privacy Policy  Contact